Location: *
(43.9905°S, 176.4941°W)
Time: 17:10:47
(UTC+00:00)

Cosmos 44 Rocket - Pass Details

Date: 08 December 2019
Orbit: 660 x 730 km, 65.1° (Epoch: 20 January)

Event Time Altitude Azimuth Distance (km) Brightness Sun altitude
Rises 07:55:53 0° 320° (NW) 3,068 6.6 -6.2°
Reaches altitude 10° 07:58:12 10° 317° (NW) 2,169 5.9 -6.5°
Maximum altitude 08:03:08 67° 233° (SW) 780 3.9 -7.2°
Drops below altitude 10° 08:08:14 10° 150° (SSE) 2,237 6.1 -7.9°
Sets 08:10:40 0° 147° (SSE) 3,173 6.8 -8.2°
